Retour au catalogue

BREEZE-M R/B

ActifMEO
NORAD 43433·ROCKET BODY·🇷🇺 Russia

Lancé Apr 18, 2018 depuis Baikonur Cosmodrome

Loading…

Prochains Passages (prochaines 24 heures)

TLE

FraisSource: Space-Track

Époque: Sep 14, 2026, 16:09 UTC

1 43433U 18037B   26257.67345645 -.00000193  00000-0  00000-0 0  9992
2 43433   8.3943  70.2609 0671863  30.5943 333.3064  0.90514235 28017

Suivez BREEZE-M R/B en temps réel avec AllMySat

Download on the App Store